Location: El Corozo
(10.5833°N, 66.9667°W)
Time: 17:10:37
(UTC+00:00)

ATLAS 3B R/B - Pass Details

Date: 10 August 2024
Orbit: 940 x 1254 km, 63.8° (Epoch: 19 September)

Event Time Altitude Azimuth Distance (km) Brightness Sun altitude
Rises 05:58:35 0° 5° (N) 4,182 6.2 -56.5°
Reaches altitude 10° 06:02:58 10° 27° (NNE) 3,188 5.5 -55.8°
Enters shadow 06:04:02 12° 34° (NE) 3,016 5.4 -55.6°
